EW9485 Weather Reports


Display with metric or nautical units.
time (UTC)temp
F
wind
direction
speed
MPH
gust
MPH
rain 1hr
in
rain 24hr
in
rain mn
in
humidity
%
barometer
mb
20260503235549 70 248 5.0 11.0 0.00 0.00 0.00 52 1017.2
20260503235050 70 277 5.0 11.0 0.00 0.00 0.00 51 1017.3
20260503234556 70 245 5.0 12.0 0.00 0.00 0.00 51 1017.2
20260503234047 71 263 5.0 12.0 0.00 0.00 0.00 50 1017.1
20260503233547 71 246 5.0 12.0 0.00 0.00 0.00 49 1017.3
20260503233056 71 227 8.0 12.0 0.00 0.00 0.00 49 1017.2
20260503232551 72 267 4.0 11.0 0.00 0.00 0.00 49 1017.2
20260503232045 72 283 6.0 12.0 0.00 0.00 0.00 47 1017.2
20260503231554 72 233 6.0 12.0 0.00 0.00 0.00 47 1017.3
20260503231045 73 269 5.0 12.0 0.00 0.00 0.00 48 1017.3
20260503230548 73 262 6.0 12.0 0.00 0.00 0.00 47 1017.3
20260503230051 73 286 7.0 13.0 0.00 0.00 0.00 49 1017.1
20260503225547 74 314 5.0 13.0 0.00 0.00 0.00 46 1017.2
20260503225048 74 266 5.0 10.0 0.00 0.00 0.00 45 1017.1
20260503224549 74 301 5.0 11.0 0.00 0.00 0.00 45 1017.1
20260503224048 74 269 5.0 13.0 0.00 0.00 0.00 45 1017.1
20260503223549 75 219 5.0 13.0 0.00 0.00 0.00 45 1017.1
20260503223057 75 237 7.0 12.0 0.00 0.00 0.00 44 1017.0
20260503222549 75 252 6.0 12.0 0.00 0.00 0.00 47 1017.1
20260503222047 75 265 4.0 9.0 0.00 0.00 0.00 44 1017.2
20260503221548 75 262 4.0 10.0 0.00 0.00 0.00 44 1017.1
20260503221050 75 252 7.0 14.0 0.00 0.00 0.00 43 1017.2
20260503220547 75 252 5.0 14.0 0.00 0.00 0.00 43 1017.3
20260503220105 75 265 9.0 14.0 0.00 0.00 0.00 41 1017.2
20260503215544 75 252 7.0 13.0 0.00 0.00 0.00 43 1017.3
20260503215044 75 232 8.0 16.0 0.00 0.00 0.00 42 1017.2
20260503214549 76 247 5.0 16.0 0.00 0.00 0.00 42 1017.2
20260503214049 77 226 7.0 16.0 0.00 0.00 0.00 39 1017.3
20260503213544 77 271 7.0 16.0 0.00 0.00 0.00 41 1017.3
20260503213053 76 232 7.0 16.0 0.00 0.00 0.00 39 1017.2
20260503212545 76 258 7.0 15.0 0.00 0.00 0.00 37 1017.3
20260503212045 76 208 9.0 15.0 0.00 0.00 0.00 38 1017.4
20260503211605 77 230 9.0 15.0 0.00 0.00 0.00 37 1017.4
20260503211049 77 216 7.0 15.0 0.00 0.00 0.00 39 1017.5
20260503210544 77 294 6.0 15.0 0.00 0.00 0.00 37 1017.6
20260503210049 78 227 4.0 11.0 0.00 0.00 0.00 39 1017.6
20260503205544 77 264 4.0 11.0 0.00 0.00 0.00 39 1017.6
20260503205044 77 217 3.0 11.0 0.00 0.00 0.00 41 1017.7
20260503204553 77 355 5.0 11.0 0.00 0.00 0.00 36 1018.0
20260503204043 78 171 3.0 9.0 0.00 0.00 0.00 39 1017.9
20260503203543 79 13 3.0 12.0 0.00 0.00 0.00 27 1017.9
20260503203047 78 331 7.0 12.0 0.00 0.00 0.00 28 1017.9
20260503202544 78 348 6.0 12.0 0.00 0.00 0.00 28 1018.1
20260503202047 78 28 6.0 12.0 0.00 0.00 0.00 27 1018.2
20260503201551 78 45 5.0 11.0 0.00 0.00 0.00 29 1018.2
20260503201046 77 352 2.0 9.0 0.00 0.00 0.00 35 1018.2
20260503200547 77 22 3.0 9.0 0.00 0.00 0.00 29 1018.2
20260503200052 77 48 4.0 15.0 0.00 0.00 0.00 29 1018.2
20260503195545 77 350 6.0 17.0 0.00 0.00 0.00 28 1018.3
20260503195042 77 342 10.0 17.0 0.00 0.00 0.00 29 1018.3
20260503194555 78 30 5.0 12.0 0.00 0.00 0.00 29 1018.2
20260503194044 77 329 6.0 16.0 0.00 0.00 0.00 28 1018.3
20260503193544 77 25 5.0 16.0 0.00 0.00 0.00 33 1018.3
20260503193057 78 12 8.0 16.0 0.00 0.00 0.00 29 1018.5
20260503192544 78 65 6.0 13.0 0.00 0.00 0.00 28 1018.5
20260503192044 78 18 8.0 13.0 0.00 0.00 0.00 27 1018.7
20260503191551 78 342 6.0 12.0 0.00 0.00 0.00 30 1018.8
20260503191046 77 5 8.0 13.0 0.00 0.00 0.00 27 1018.8
20260503190544 77 340 8.0 15.0 0.00 0.00 0.00 26 1019.0
20260503190050 77 301 9.0 20.0 0.00 0.00 0.00 26 1018.9
20260503185544 77 325 6.0 20.0 0.00 0.00 0.00 28 1019.0
20260503185044 78 48 6.0 20.0 0.00 0.00 0.00 29 1019.1
20260503184602 77 321 5.0 13.0 0.00 0.00 0.00 26 1019.3
20260503184042 77 355 6.0 15.0 0.00 0.00 0.00 28 1019.4
20260503183545 77 12 9.0 15.0 0.00 0.00 0.00 27 1019.6
20260503183105 77 321 5.0 14.0 0.00 0.00 0.00 28 1019.5
20260503182545 76 76 7.0 14.0 0.00 0.00 0.00 29 1019.5
20260503182044 76 28 6.0 14.0 0.00 0.00 0.00 29 1019.5
20260503181622 76 332 6.0 14.0 0.00 0.00 0.00 28 1019.5
20260503181044 77 15 8.0 13.0 0.00 0.00 0.00 27 1019.6
20260503180544 77 49 5.0 13.0 0.00 0.00 0.00 31 1019.5
20260503180120 76 22 6.0 11.0 0.00 0.00 0.00 29 1019.7
20260503175543 77 67 5.0 12.0 0.00 0.00 0.00 30 1019.7
20260503175043 76 36 3.0 12.0 0.00 0.00 0.00 30 1019.8
20260503174556 76 334 7.0 15.0 0.00 0.00 0.00 28 1019.9
20260503174045 77 13 6.0 15.0 0.00 0.00 0.00 29 1019.9
20260503173546 76 293 3.0 10.0 0.00 0.00 0.00 30 1020.1
20260503173059 75 360 4.0 15.0 0.00 0.00 0.00 30 1020.2
20260503172548 75 17 4.0 15.0 0.00 0.00 0.00 30 1020.3
20260503172048 76 5 7.0 15.0 0.00 0.00 0.00 31 1020.3
20260503171554 76 315 6.0 12.0 0.00 0.00 0.00 31 1020.3
20260503171048 75 302 4.0 12.0 0.00 0.00 0.00 31 1020.3
20260503170544 75 360 3.0 12.0 0.00 0.00 0.00 31 1020.3
20260503150548 71 21 8.0 16.0 0.00 0.00 0.00 35 1021.4
20260503150103 71 44 7.0 16.0 0.00 0.00 0.00 39 1021.3
20260503131044 61 355 7.0 12.0 0.00 0.09 0.00 59 1020.2
20260503130544 61 9 6.0 12.0 0.00 0.09 0.00 60 1020.2
20260503120105 53 355 3.0 8.0 0.00 0.13 0.00 75 1020.1
20260503110548 51 360 2.0 5.0 0.00 0.14 0.00 75 1019.7
20260503100106 52 355 2.0 5.0 0.00 0.51 0.00 73 1018.8
20260503081554 53 5 2.0 4.0 0.00 1.43 0.00 69 1018.7
20260503081048 54 360 2.0 4.0 0.00 1.43 0.00 69 1018.7
20260503080552 54 345 2.0 4.0 0.00 1.43 0.00 68 1018.7
20260503072547 56 347 1.0 3.0 0.00 1.57 0.00 63 1018.4
20260503072048 57 347 1.0 4.0 0.00 1.57 0.00 62 1018.4
20260503071557 57 347 1.0 4.0 0.00 1.57 0.00 62 1018.4
20260503071052 57 21 2.0 4.0 0.00 1.57 0.00 61 1018.3
20260503070547 57 5 2.0 4.0 0.00 1.57 0.00 61 1018.3
20260503060113 58 13 3.0 7.0 0.00 1.58 0.00 62 1018.0
20260503055043 58 5 3.0 8.0 0.00 1.61 0.00 61 1018.0
20260503054548 59 5 2.0 8.0 0.00 1.61 0.00 61 1018.1
20260503054044 59 360 3.0 8.0 0.00 1.61 0.00 61 1017.9
20260503053543 59 360 3.0 7.0 0.00 1.61 0.00 61 1018.0
20260503053048 59 347 3.0 7.0 0.00 1.61 0.00 60 1017.9
20260503052543 59 5 2.0 7.0 0.00 1.61 0.00 60 1017.9
20260503052043 59 355 3.0 7.0 0.00 1.61 0.00 60 1017.7
20260503051550 60 333 3.0 10.0 0.00 1.61 0.00 60 1017.7
20260503051042 60 350 4.0 10.0 0.00 1.61 0.00 59 1017.6
20260503050544 60 349 4.0 10.0 0.00 1.61 0.00 59 1017.4
20260503050050 60 343 4.0 10.0 0.00 1.61 0.00 59 1017.4
20260503045542 60 355 5.0 11.0 0.00 1.61 1.61 59 1017.3
20260503045044 61 360 6.0 11.0 0.00 1.61 1.61 59 1017.3
20260503044618 61 24 6.0 11.0 0.00 1.61 1.61 58 1017.2
20260503044043 61 339 6.0 12.0 0.00 1.61 1.61 59 1017.2
20260503043543 61 338 6.0 12.0 0.00 1.61 1.61 59 1017.2
20260503043050 61 11 5.0 11.0 0.00 1.61 1.61 59 1017.1
20260503042546 61 340 5.0 11.0 0.00 1.61 1.61 59 1017.1
20260503042046 61 340 6.0 12.0 0.00 1.61 1.61 59 1017.0
20260503041554 61 24 7.0 12.0 0.00 1.61 1.61 59 1017.0
20260503041044 61 355 5.0 11.0 0.00 1.61 1.61 60 1017.1
20260503040543 62 5 5.0 11.0 0.00 1.61 1.61 60 1016.9
20260503040051 62 332 6.0 11.0 0.00 1.61 1.61 60 1016.8
20260503035545 62 314 7.0 13.0 0.00 1.61 1.61 59 1016.8
20260503035045 62 360 6.0 13.0 0.00 1.61 1.61 59 1016.8
20260503034557 62 329 6.0 11.0 0.00 1.61 1.61 59 1016.8
20260503034044 62 351 5.0 11.0 0.00 1.61 1.61 59 1016.7
20260503033542 63 342 5.0 11.0 0.00 1.61 1.61 59 1016.6
20260503033051 63 5 6.0 13.0 0.00 1.61 1.61 59 1016.7
20260503032545 63 24 6.0 13.0 0.00 1.61 1.61 59 1016.6
20260503032047 63 340 8.0 13.0 0.00 1.61 1.61 59 1016.6
20260503031550 63 5 6.0 13.0 0.00 1.61 1.61 59 1016.5
20260503031049 63 5 6.0 12.0 0.00 1.61 1.61 60 1016.5
20260503030545 63 340 6.0 12.0 0.00 1.61 1.61 61 1016.5
20260503030057 63 349 5.0 12.0 0.00 1.61 1.61 63 1016.5
20260503025544 63 323 5.0 11.0 0.00 1.61 1.61 64 1016.5
20260503025049 64 326 5.0 11.0 0.00 1.61 1.61 65 1016.5
20260503024558 64 348 4.0 8.0 0.00 1.61 1.61 65 1016.4
20260503024048 64 351 3.0 8.0 0.00 1.61 1.61 65 1016.2
20260503023546 64 311 3.0 6.0 0.00 1.61 1.61 65 1016.2
20260503023057 64 5 3.0 8.0 0.00 1.61 1.61 65 1016.1
20260503022548 64 309 4.0 13.0 0.00 1.61 1.61 65 1016.0
20260503022048 64 16 4.0 13.0 0.00 1.61 1.61 65 1016.0
20260503021551 64 355 5.0 9.0 0.00 1.61 1.61 65 1015.7
20260503021049 64 331 4.0 8.0 0.00 1.61 1.61 65 1015.7
20260503020548 65 342 3.0 6.0 0.00 1.61 1.61 65 1015.6
20260503015547 65 342 2.0 8.0 0.00 1.66 1.61 65 1015.6
20260503015048 65 341 3.0 8.0 0.00 1.66 1.61 65 1015.5
20260503014556 65 351 3.0 6.0 0.00 1.66 1.61 65 1015.4
20260503014050 65 348 3.0 6.0 0.00 1.66 1.61 65 1015.3
20260503013548 65 324 4.0 6.0 0.00 1.66 1.61 65 1015.2
20260503013107 66 335 3.0 6.0 0.00 1.66 1.61 65 1015.2
20260503012551 66 344 4.0 6.0 0.00 1.66 1.61 64 1015.0
20260503012047 66 344 4.0 6.0 0.00 1.66 1.61 64 1015.1
20260503011552 66 336 3.0 6.0 0.00 1.66 1.61 63 1015.0
20260503011048 67 340 2.0 5.0 0.00 1.66 1.61 63 1014.9
20260503010547 67 333 3.0 5.0 0.00 1.66 1.61 62 1014.9
20260503010054 67 337 3.0 5.0 0.00 1.66 1.61 62 1014.6
20260503005548 67 340 2.0 6.0 0.00 1.66 1.61 61 1014.5
20260503005047 68 339 2.0 8.0 0.00 1.66 1.61 61 1014.4
20260503004613 68 349 3.0 8.0 0.00 1.66 1.61 60 1014.4
20260503004044 68 352 3.0 9.0 0.00 1.66 1.61 60 1014.2
20260503003548 69 9 3.0 9.0 0.00 1.66 1.61 59 1014.1
20260503003058 69 323 3.0 9.0 0.00 1.66 1.61 59 1014.0
20260503002550 69 5 3.0 9.0 0.00 1.66 1.61 59 1013.8
20260503002047 69 332 3.0 9.0 0.00 1.66 1.61 59 1013.7
20260503001554 70 18 3.0 8.0 0.00 1.66 1.61 58 1013.6
20260503001048 70 352 4.0 8.0 0.00 1.66 1.61 58 1013.5
20260503000547 70 9 4.0 9.0 0.00 1.66 1.61 57 1013.4